#timestamp,LO_Frequency,Hit,StdDev 
1583089215.5,286046998.4,N
1583089235.3,286047001.9,N
1583089255.2,286047004.4,Y
1583089275.0,286047001.0,P
1583089275.9,286047001.0,P
1583089295.7,286046998.6,P
1583089315.6,286046999.2,N
1583089335.4,286046996.9,N
1583089355.3,286046999.2,N
1583089375.1,286047001.1,N
1583089395.8,286046995.6,Y
1583089415.7,286046995.7,P
1583089435.5,286046999.2,N
1583089455.4,286046997.5,N
1583089475.2,286046995.7,N
1583089495.0,286046997.9,N
1583089495.9,286046997.9,N
1583089515.8,286046997.4,N
1583089535.6,286046999.2,N
1583089555.5,286047001.2,N
1583089575.3,286046997.2,N
1583089595.1,286046995.0,Y
1583089615.9,286046996.5,P
1583089635.7,286046998.8,N
1583089655.5,286047002.1,N
1583089675.4,286047001.0,N
1583089695.2,286046998.3,N
1583089715.1,286046998.3,N
1583089716.0,286046998.3,N
1583089735.8,286046998.8,N
1583089755.6,286046999.0,N
1583089775.5,286046998.7,N
1583089795.3,286047001.1,N
1583089815.2,286046999.6,N
1583089835.9,286046996.7,N
1583089855.7,286047000.9,N
1583089875.6,286046998.2,N
1583089895.4,286046997.0,N
1583089915.2,286046997.1,N
1583089935.1,286046996.8,N
1583089936.0,286046996.8,N
1583089955.8,286046997.2,N
1583089975.7,286046995.3,N
1583089995.5,286046996.8,N
1583090015.3,286047000.9,N
1583090035.2,286047002.6,N
1583090055.0,286047000.3,N
1583090055.9,286047000.3,N
1583090075.8,286047000.1,N
1583090095.6,286046999.2,N
1583090115.4,286046998.9,N
1583090135.3,286047000.6,N
1583090155.1,286046999.7,N
1583090175.8,286047002.3,N
1583090195.7,286047000.1,N
1583090215.5,286047000.3,N
1583090235.4,286047002.6,N
1583090255.2,286047001.6,N
1583090275.0,286047002.3,N
1583090275.9,286047002.3,N
1583090295.8,286047001.3,N
1583090315.6,286047001.8,N
1583090335.5,286047001.3,N
1583090355.3,286047003.4,N
1583090375.1,286047002.0,N
1583090395.9,286047002.2,N
1583090415.7,286047002.3,N
1583090435.6,286047000.2,N
1583090455.4,286047004.3,N
1583090475.2,286047001.3,N
1583090495.1,286047001.8,N
1583090496.0,286047001.8,N
1583090515.8,286047002.4,N
1583090535.6,286047002.8,N
1583090555.5,286047001.6,N
1583090575.3,286046999.7,N
1583090595.2,286046999.8,N
1583090615.9,286047003.9,Y
1583090635.7,286047000.0,P
1583090655.6,286047001.2,N
1583090675.4,286046998.2,P
1583090695.3,286046997.7,N
1583090715.1,286046997.6,N
1583090716.0,286047011.9,Y
1583090735.8,286046997.5,P
1583090755.7,286046998.0,N
1583090775.5,286046995.0,P
1583090795.4,286046996.4,N
1583090815.2,286046998.9,N
1583090835.0,286047004.4,N
1583090835.9,286047004.4,N
1583090855.8,286047004.2,N
1583090875.6,286047000.8,N
1583090895.5,286046999.0,N
1583090915.3,286046996.5,N
1583090935.1,286046998.4,N
1583090955.9,286047006.4,N
1583090975.7,286047010.1,N
1583090995.5,286047005.3,N
1583091015.4,286047000.6,N
1583091035.2,286047000.5,N
1583091055.1,286047001.7,N
1583091056.0,286047001.7,N
1583091075.8,286047006.8,N
1583091095.6,286047005.4,N
1583091115.5,286047005.3,N
1583091135.3,286047002.5,N
1583091155.2,286047000.0,N
1583091175.9,286047002.8,N
1583091195.7,286047000.1,N
1583091215.6,286047000.2,N
1583091235.4,286047001.1,N
1583091255.2,286046999.0,N
1583091275.1,286046999.6,N
1583091276.0,286046999.6,N
1583091295.8,286046997.1,N
1583091315.7,286046996.7,N
1583091335.5,286046996.6,N
1583091355.4,286046997.0,N
1583091375.2,286046997.4,N
1583091395.0,286046995.6,N
1583091395.9,286046995.6,N
1583091415.8,286046997.9,N
1583091435.6,286046996.2,N
1583091455.4,286046995.9,N
1583091475.3,286046993.4,N
1583091495.1,286046996.3,N
1583091515.9,286046994.5,N
1583091535.7,286046996.4,N
1583091555.5,286046993.4,N
1583091575.4,286046994.8,N
1583091595.2,286046992.3,N
1583091615.1,286046992.2,N
1583091616.0,286046992.2,N
1583091635.8,286046991.9,N
1583091655.6,286046992.0,N
1583091675.5,286046992.6,N
1583091695.3,286046992.3,N
1583091715.2,286046990.1,Y
1583091735.9,286046993.3,P
1583091755.7,286046993.8,P
1583091775.6,286046995.7,P
1583091795.4,286046995.5,Y
1583091815.3,286047001.4,P
1583091835.1,286047002.8,N
1583091836.0,286047002.8,N
1583091855.8,286047000.0,N
1583091875.7,286047000.2,N
1583091895.5,286047001.6,N
1583091915.3,286047001.9,N
1583091935.2,286047004.2,N
1583091955.0,286047001.7,N
1583091955.9,286047001.7,N
1583091975.8,286047002.4,N
1583091995.6,286047001.9,N
1583092015.4,286047003.2,N
1583092035.3,286047003.4,N
1583092055.1,286047003.8,N
1583092075.9,286047002.0,N
1583092095.7,286047008.5,Y
1583092115.5,286047007.7,P
1583092135.4,286047007.4,N
1583092155.2,286047001.3,N
1583092175.0,286047000.2,N
1583092175.9,286047000.2,N
1583092195.8,286047001.0,N
1583092215.6,286047000.0,N
1583092235.5,286047001.8,N
1583092255.3,286047004.3,N
1583092275.1,286047001.7,N
1583092295.9,286047001.3,N
1583092315.7,286047004.4,N
1583092335.6,286047003.5,N
1583092355.4,286047004.6,N
1583092375.2,286047005.6,N
1583092395.1,286047004.1,N
1583092396.0,286047004.1,N
1583092415.8,286047003.6,N
1583092435.7,286047001.8,N
1583092455.5,286047003.1,N
1583092475.3,286047006.0,N
1583092495.2,286047003.7,N
1583092515.0,286047004.1,N
1583092515.9,286047004.1,N
1583092535.7,286047003.2,N
1583092555.6,286047004.3,N
1583092575.4,286047004.0,N
1583092595.3,286047001.4,N
1583092615.1,286047001.9,N
1583092616.0,286047001.9,N
1583092635.8,286046999.8,N
1583092655.7,286046998.4,N
1583092675.5,286046999.0,N
1583092695.4,286046998.6,N
1583092715.2,286046998.3,N
1583092735.0,286046998.7,N
1583092735.9,286046998.7,N
1583092755.8,286046998.9,N
1583092775.6,286046998.5,N
1583092795.4,286046998.6,N
